• In Hungary
  • List of Countries
  • For 7 days
  • Water Temperature
  • Satellite Maps
  • Weather Map
  • News
  • Weather Widgets
  • user-avatar
    Login

    Hourly Weather Kandi

    Today, 23 September, Sunday

    Time Temperature Precipitation Wind Pressure Humidity
    00:00 +26°C° 0 mm 1 mps 737 mmHg 89%
    01:00 +25°C° 0.3 mm 1 mps 737 mmHg 89%
    02:00 +25°C° 0.3 mm 1 mps 736 mmHg 90%
    03:00 +25°C° 0.3 mm 1 mps 736 mmHg 91%
    04:00 +25°C° 0 mm 1 mps 736 mmHg 92%
    05:00 +25°C° 0 mm 1 mps 736 mmHg 92%
    06:00 +25°C° 0 mm 1 mps 737 mmHg 93%
    07:00 +27°C° 0 mm 2 mps 737 mmHg 86%
    08:00 +28°C° 0 mm 2 mps 737 mmHg 78%
    09:00 +30°C° 0 mm 2 mps 737 mmHg 71%
    10:00 +32°C° 0 mm 2 mps 737 mmHg 64%
    11:00 +35°C° 0 mm 2 mps 737 mmHg 58%
    12:00 +36°C° 0 mm 2 mps 737 mmHg 51%
    13:00 +36°C° 0 mm 2 mps 736 mmHg 51%
    14:00 +36°C° 0 mm 2 mps 735 mmHg 50%
    15:00 +37°C° 0 mm 2 mps 735 mmHg 50%
    16:00 +35°C° 0 mm 2 mps 735 mmHg 56%
    17:00 +32°C° 0 mm 2 mps 735 mmHg 62%
    18:00 +31°C° 0 mm 1 mps 735 mmHg 68%
    19:00 +30°C° 0 mm 1 mps 736 mmHg 71%
    20:00 +29°C° 0 mm 1 mps 736 mmHg 74%
    21:00 +29°C° 0 mm 2 mps 737 mmHg 77%
    22:00 +28°C° 0 mm 2 mps 737 mmHg 78%
    23:00 +28°C° 0 mm 2 mps 737 mmHg 79%

    Tomorrow, 24 September, Monday

    Time Temperature Precipitation Wind Pressure Humidity
    00:00 +28°C° 0 mm 2 mps 736 mmHg 80%
    01:00 +27°C° 0 mm 2 mps 736 mmHg 82%
    02:00 +27°C° 0 mm 2 mps 735 mmHg 83%
    03:00 +27°C° 0 mm 2 mps 735 mmHg 84%
    04:00 +26°C° 0 mm 2 mps 735 mmHg 86%
    05:00 +26°C° 0 mm 2 mps 735 mmHg 88%
    06:00 +26°C° 0 mm 2 mps 736 mmHg 90%
    07:00 +28°C° 0 mm 2 mps 737 mmHg 83%
    08:00 +30°C° 0 mm 2 mps 737 mmHg 75%
    09:00 +31°C° 0 mm 2 mps 738 mmHg 68%
    10:00 +34°C° 0 mm 2 mps 738 mmHg 62%
    11:00 +35°C° 0 mm 2 mps 737 mmHg 57%
    12:00 +37°C° 0 mm 2 mps 737 mmHg 51%
    13:00 +37°C° 0 mm 2 mps 736 mmHg 50%
    14:00 +36°C° 0 mm 1 mps 735 mmHg 49%
    15:00 +36°C° 0 mm 1 mps 735 mmHg 48%
    16:00 +35°C° 0 mm 1 mps 735 mmHg 55%
    17:00 +33°C° 0 mm 1 mps 735 mmHg 61%
    18:00 +31°C° 0 mm 2 mps 735 mmHg 67%
    19:00 +30°C° 0.4 mm 2 mps 735 mmHg 71%
    20:00 +29°C° 0.4 mm 2 mps 736 mmHg 76%
    21:00 +28°C° 0.4 mm 2 mps 736 mmHg 80%
    22:00 +28°C° 0.3 mm 2 mps 736 mmHg 84%
    23:00 +27°C° 0.3 mm 2 mps 736 mmHg 87%

    Day after tomorrow, 25 September, Tuesday

    Time Temperature Precipitation Wind Pressure Humidity
    00:00 +27°C° 0.3 mm 2 mps 735 mmHg 90%
    01:00 +26°C° 0.2 mm 2 mps 735 mmHg 91%
    02:00 +26°C° 0.2 mm 2 mps 735 mmHg 91%
    03:00 +26°C° 0.2 mm 2 mps 735 mmHg 92%
    04:00 +26°C° 0.2 mm 2 mps 735 mmHg 92%
    05:00 +26°C° 0.2 mm 2 mps 735 mmHg 93%
    06:00 +26°C° 0.2 mm 2 mps 736 mmHg 94%
    07:00 +27°C° 0 mm 2 mps 736 mmHg 88%
    08:00 +28°C° 0 mm 2 mps 737 mmHg 83%
    09:00 +30°C° 0 mm 2 mps 738 mmHg 77%
    10:00 +31°C° 0 mm 2 mps 737 mmHg 71%
    11:00 +34°C° 0 mm 2 mps 737 mmHg 65%
    12:00 +35°C° 0 mm 2 mps 737 mmHg 58%
    13:00 +35°C° 0.1 mm 2 mps 736 mmHg 60%
    14:00 +35°C° 0.1 mm 2 mps 735 mmHg 62%
    15:00 +35°C° 0.1 mm 2 mps 734 mmHg 63%
    16:00 +32°C° 1.3 mm 2 mps 734 mmHg 71%
    17:00 +30°C° 1.3 mm 2 mps 735 mmHg 79%
    18:00 +29°C° 1.3 mm 2 mps 735 mmHg 87%
    19:00 +28°C° 0.6 mm 2 mps 736 mmHg 88%
    20:00 +28°C° 0.6 mm 2 mps 736 mmHg 90%
    21:00 +27°C° 0.6 mm 2 mps 737 mmHg 92%
    22:00 +27°C° 0.7 mm 2 mps 737 mmHg 91%
    23:00 +27°C° 0.7 mm 2 mps 736 mmHg 91%

    26 September, Wednesday

    Time Temperature Precipitation Wind Pressure Humidity
    00:00 +27°C° 0.7 mm 2 mps 736 mmHg 90%
    01:00 +26°C° 0 mm 2 mps 736 mmHg 91%
    02:00 +26°C° 0 mm 2 mps 735 mmHg 92%
    03:00 +26°C° 0 mm 2 mps 735 mmHg 92%
    04:00 +26°C° 0 mm 2 mps 735 mmHg 93%
    05:00 +26°C° 0 mm 1 mps 735 mmHg 93%
    06:00 +25°C° 0 mm 1 mps 736 mmHg 93%
    07:00 +27°C° 0 mm 1 mps 736 mmHg 87%
    08:00 +28°C° 0 mm 2 mps 737 mmHg 81%
    09:00 +30°C° 0 mm 2 mps 737 mmHg 74%
    10:00 +31°C° 0 mm 2 mps 737 mmHg 68%
    11:00 +34°C° 0 mm 2 mps 736 mmHg 62%
    12:00 +35°C° 0 mm 2 mps 736 mmHg 56%
    13:00 +35°C° 0 mm 2 mps 735 mmHg 56%
    14:00 +35°C° 0 mm 2 mps 735 mmHg 56%
    15:00 +34°C° 0 mm 1 mps 735 mmHg 56%
    16:00 +33°C° 0 mm 1 mps 735 mmHg 61%
    17:00 +32°C° 0 mm 1 mps 735 mmHg 67%
    18:00 +30°C° 0 mm 1 mps 735 mmHg 72%
    19:00 +30°C° 0.1 mm 1 mps 736 mmHg 75%
    20:00 +29°C° 0.1 mm 2 mps 736 mmHg 77%
    21:00 +29°C° 0.1 mm 2 mps 736 mmHg 79%
    22:00 +28°C° 0.2 mm 2 mps 736 mmHg 82%
    23:00 +28°C° 0.2 mm 2 mps 736 mmHg 84%

    27 September, Thursday

    Time Temperature Precipitation Wind Pressure Humidity
    00:00 +27°C° 0.2 mm 2 mps 736 mmHg 86%
    01:00 +27°C° 0 mm 2 mps 736 mmHg 87%
    02:00 +27°C° 0 mm 3 mps 735 mmHg 88%
    03:00 +26°C° 0 mm 3 mps 735 mmHg 89%
    04:00 +26°C° 0 mm 3 mps 735 mmHg 89%
    05:00 +26°C° 0 mm 2 mps 735 mmHg 88%
    06:00 +26°C° 0 mm 2 mps 736 mmHg 88%
    07:00 +27°C° 0 mm 2 mps 736 mmHg 83%
    08:00 +28°C° 0 mm 2 mps 737 mmHg 79%
    09:00 +30°C° 0 mm 2 mps 737 mmHg 74%
    10:00 +31°C° 0 mm 2 mps 737 mmHg 68%
    11:00 +34°C° 0 mm 2 mps 736 mmHg 62%
    12:00 +35°C° 0 mm 2 mps 736 mmHg 56%
    13:00 +35°C° 0 mm 2 mps 735 mmHg 54%
    14:00 +36°C° 0 mm 2 mps 735 mmHg 53%
    15:00 +35°C° 0 mm 1 mps 734 mmHg 52%
    16:00 +34°C° 0 mm 1 mps 734 mmHg 57%
    17:00 +32°C° 0 mm 1 mps 735 mmHg 62%
    18:00 +31°C° 0 mm 1 mps 735 mmHg 67%
    19:00 +30°C° 0.3 mm 1 mps 735 mmHg 71%
    20:00 +29°C° 0.3 mm 1 mps 736 mmHg 74%
    21:00 +28°C° 0.3 mm 1 mps 736 mmHg 77%
    22:00 +28°C° 0.1 mm 2 mps 736 mmHg 80%
    23:00 +27°C° 0.1 mm 2 mps 735 mmHg 83%

    28 September, Friday

    Time Temperature Precipitation Wind Pressure Humidity
    00:00 +27°C° 0.1 mm 2 mps 735 mmHg 86%
    01:00 +27°C° 0 mm 2 mps 735 mmHg 87%
    02:00 +27°C° 0 mm 2 mps 735 mmHg 88%
    03:00 +26°C° 0 mm 2 mps 734 mmHg 89%
    04:00 +26°C° 0 mm 2 mps 735 mmHg 90%
    05:00 +26°C° 0 mm 3 mps 735 mmHg 91%
    06:00 +26°C° 0 mm 3 mps 736 mmHg 92%
    07:00 +28°C° 0 mm 3 mps 736 mmHg 84%
    08:00 +29°C° 0 mm 3 mps 737 mmHg 77%
    09:00 +31°C° 0 mm 3 mps 738 mmHg 69%
    10:00 +31°C° 2.2 mm 2 mps 737 mmHg 70%
    11:00 +32°C° 2.2 mm 2 mps 736 mmHg 71%
    12:00 +32°C° 2.2 mm 2 mps 736 mmHg 71%
    13:00 +31°C° 2.3 mm 2 mps 735 mmHg 77%
    14:00 +29°C° 2.3 mm 2 mps 735 mmHg 82%
    15:00 +28°C° 2.3 mm 1 mps 735 mmHg 87%
    16:00 +28°C° 0.1 mm 1 mps 735 mmHg 88%
    17:00 +27°C° 0.1 mm 1 mps 735 mmHg 89%
    18:00 +26°C° 0.1 mm 1 mps 735 mmHg 90%
    19:00 +26°C° 0 mm 1 mps 736 mmHg 89%
    20:00 +26°C° 0 mm 1 mps 736 mmHg 88%
    21:00 +26°C° 0 mm 1 mps 736 mmHg 87%
    22:00 +26°C° 0 mm 1 mps 736 mmHg 87%
    23:00 +26°C° 0 mm 1 mps 736 mmHg 87%
    Show more